Hourly Data Report for July 19, 2021

WINNIPEG A CS
MANITOBA
Current Station Operator: ECCC - MSC

49°55'00.000" N
97°14'58.000" W
238.70 m
502S001
71849
XWG

Download Data

Hourly Data (July 2021)
Hourly Data Report for July 19, 2021
TIME
LST
Temp Definition
°C
Dew Point Definition
°C
Rel Hum Definition
%
Precip. Amount Definition
mm

Wind Dir Definition
10's deg

Wind Spd Definition
km/h
Visibility Definition
km
Stn Press Definition
kPa
Hmdx Definition


Wind Chill Definition


Weather Definition


00:00 25.6 18.1 63 0.0 20 22   98.82 32   LegendNANA
01:00 24.9 18.1 66 0.0 21 18   98.83 31   LegendNANA
02:00 23.4 18.2 73 0.0 22 9   98.81 30   LegendNANA
03:00 21.9 18.5 81 0.0 32 10   98.89 28   LegendNANA
04:00 21.6 17.6 78 0.0 34 21   99.08 27   LegendNANA
05:00 20.7 17.8 84 0.0 10 6   98.79 27   LegendNANA
06:00 19.5 17.1 86 0.3 1 21   99.04     LegendNANA
07:00 19.2 17.0 87 0.0 36 17   99.14     LegendNANA
08:00 18.2 15.9 87 0.0 36 17   99.19     LegendNANA
09:00 18.2 16.0 87 0.0 2 19   99.18     LegendNANA
10:00 19.3 16.3 83 0.0 1 18   99.21     LegendNANA
11:00 19.7 16.2 80 0.0 1 22   99.23     LegendNANA
12:00 19.5 15.9 80 0.0 36 17   99.29     LegendNANA
13:00 20.3 15.8 75 0.0 2 14   99.34 25   LegendNANA
14:00 20.8 15.5 72 0.0 3 11   99.32 25   LegendNANA
15:00 22.6 16.2 67 0.0 2 14   99.28 27   LegendNANA
16:00 23.1 15.8 64 0.0 1 14   99.29 28   LegendNANA
17:00 22.7 15.2 63 0.0 2 13   99.28 27   LegendNANA
18:00 23.1 16.0 64 0.0 2 12   99.22 28   LegendNANA
19:00 22.5 16.0 67 0.0 4 12   99.16 27   LegendNANA
20:00 20.8 15.8 73 0.0 5 10   99.24 25   LegendNANA
21:00 19.0 15.1 78 0.0 7 6   99.29     LegendNANA
22:00 18.2 15.6 85 0.0 32 2   99.33     LegendNANA
23:00 16.4 14.3 87 0.0 32 9   99.29     LegendNANA

Notes on Data Quality.

Legend

  • E = Estimated
  • M = Missing
  • NA = Not Available*
  • [empty] = Indicates an unobserved value
Date modified: